Temp
13 13 13 13 13 13 13 13 13 14 14 14 14 14 14 14 14 14 14 13 13 13 13 13 13 12 13 12 12 12 13 13 13 14 14 14 13 13 15 12 11 12 8 6 5 5 5
13 13 13 13 13 13 13 13 13 13 13 13 14 14 14 14 14 14 13 13 13 12 12 12 12 12 12 13 11 12 12 13 13 13 13 13 12 12 11 9 11 8 8 6 5 5 4
13 13 12 12 12 12 12 12 12 13 13 13 13 14 14 14 14 14 14 14 13 13 13 12 12 12 12 12 11 12 12 12 13 13 13 12 11 11 10 9 7 8 9 8 7 6 6
12 12 12 12 12 12 12 12 12 12 12 13 13 14 14 14 14 14 14 14 13 12 12 12 12 12 11 11 11 10 11 11 11 11 12 11 11 11 9 8 8 10 10 12 8 6 4
11 11 12 12 12 11 11 12 12 12 12 12 12 13 13 14 14 14 14 14 14 12 12 11 11 11 11 10 10 10 10 10 10 11 11 10 10 8 8 11 12 10 16 12 9 6 6
11 11 10 11 12 12 12 12 12 12 12 12 12 12 12 13 14 14 14 15 14 12 12 11 11 11 10 9 10 10 10 10 9 9 10 10 9 11 10 12 17 13 12 11 12 7 5
11 10 11 10 10 11 11 11 11 11 11 12 12 12 13 13 13 13 14 14 13 11 11 10 8 9 9 9 9 9 9 9 9 9 12 7 12 13 15 11 8 9 10 12 9 4 5
10 10 10 10 10 10 11 11 11 11 11 11 12 12 12 13 13 13 13 12 10 10 8 8 8 7 7 7 8 7 8 8 9 12 7 10 12 6 5 5 6 7 9 10 7 3 3
9 9 10 10 10 10 10 10 10 11 11 11 11 12 12 12 13 12 12 11 9 8 8 7 7 7 7 7 6 6 7 6 7 8 7 11 6 3 5 5 6 7 8 8 7 4 4
9 9 10 9 10 10 10 10 10 10 10 11 11 11 12 12 12 12 11 10 9 8 11 10 7 7 7 7 6 6 6 6 6 8 6 7 3 4 4 5 6 8 4 3 3 5 9
9 9 9 10 9 10 10 10 10 10 10 10 10 10 10 11 11 11 10 10 9 8 14 8 8 7 6 6 5 5 5 5 7 6 6 9 4 4 5 5 4 5 2 2 2 4 2
9 9 9 9 9 9 9 10 10 10 10 9 10 10 10 10 10 10 11 10 8 13 12 9 7 8 8 5 5 4 4 5 3 5 4 4 1 3 4 1 2 1 2 2 1 2 5
8 8 9 9 8 8 8 8 8 8 9 9 9 9 9 9 9 10 10 10 12 13 11 11 9 7 6 8 7 5 5 6 8 9 8 3 3 1 1 2 1 2 4 9 9 5 11
8 8 8 8 8 8 8 7 8 8 9 9 9 9 10 10 10 9 10 11 11 13 12 7 7 6 9 6 6 6 6 8 2 4 7 9 9 1 2 3 5 3 5 9 9 12 11
8 8 8 8 8 8 8 8 8 8 8 8 8 9 10 11 9 9 10 10 13 13 9 9 9 10 10 6 6 6 7 8 6 4 9 7 8 1 0 1 1 3 3 1 3 -0 4
8 8 7 7 7 7 7 8 8 8 8 8 7 8 9 9 8 8 9 9 11 8 7 8 10 10 11 10 8 8 10 7 5 3 2 6 8 1 -0 0 -0 1 2 3 2 4 7
8 7 7 6 7 6 6 6 6 7 6 7 7 7 8 8 7 8 9 10 8 6 7 7 6 6 9 9 8 8 10 6 3 1 2 3 5 2 -0 1 4 -1 1 1 2 3 5
7 7 6 6 6 5 5 5 5 5 6 6 6 6 7 7 6 4 5 6 7 5 4 3 3 5 7 8 7 6 8 8 2 1 3 3 4 4 4 -1 -2 -0 2 3 5 3 1
5 5 5 5 6 5 5 5 5 4 4 4 5 5 6 6 6 6 7 6 5 3 4 2 2 4 5 6 7 6 6 1 0 2 2 1 2 3 5 -1 -3 -2 -0 0 -2 -0 2
4 4 3 2 4 4 4 4 4 4 3 3 4 5 4 3 3 4 5 4 3 1 -0 0 1 3 3 3 4 4 3 1 -1 1 1 1 1 4 7 8 0 -2 -1 -1 -0 0 2
5 4 3 1 1 0 0 1 2 2 2 2 4 5 5 6 5 3 2 2 3 3 0 1 2 2 -0 1 0 1 3 1 -3 -1 -1 1 -1 1 1 2 0 0 1 0 -2 -1 0
0 -0 -1 -1 -1 -1 -0 -0 0 1 2 2 3 4 2 2 2 2 3 3 5 6 2 1 0 4 0 0 4 4 1 -1 1 -3 -2 -1 -1 -2 -1 -0 -0 -1 -0 0 1 0 1
-1 -2 -2 -2 -1 -1 -1 -1 -0 0 0 1 2 3 3 3 3 2 4 5 5 4 4 4 2 1 0 1 2 1 0 -2 -2 -2 -2 -4 -3 -3 0 -2 -2 -1 -0 -0 -0 1 -0
-1 -1 -1 -1 -2 -2 -2 -1 -1 -0 0 0 1 1 1 2 3 3 4 4 3 4 3 3 2 1 1 -0 -2 -3 -5 -4 -4 -3 -2 -3 -4 -3 -2 -2 1 2 -3 -3 -0 -0 0
-1 -1 -1 -1 -1 -2 -2 -1 -1 -1 -0 0 -0 0 1 2 2 2 2 3 3 2 2 1 1 -0 -1 -4 -2 -1 -1 -3 -3 -3 -4 -3 -3 -2 -2 -1 2 2 -5 -4 -3 0 -1
-2 -2 -2 -2 -2 -1 -2 -2 -1 -1 -1 -1 -1 -1 -1 0 1 2 2 1 2 3 3 -2 -3 -3 -4 -2 -1 1 3 4 -0 -4 -5 -3 -3 -3 -3 -3 1 -2 -5 -6 -4 -2 -4
-3 -2 -2 -2 -2 -2 -2 -2 -2 -2 -1 -1 -1 -1 -1 -1 -0 0 1 1 1 0 0 -4 -6 -6 -5 -2 -1 1 2 0 1 -1 -5 -5 -5 -4 -3 -3 -2 -1 -5 -6 -3 -0 -6
-3 -3 -2 -2 -2 -2 -2 -2 -2 -2 -2 -1 -1 -1 -1 -1 -1 -0 -1 -0 0 -0 1 -3 -4 -5 -5 -3 -1 1 -0 0 -2 -2 -5 -4 -5 -5 -4 -4 -4 -6 -7 -4 -4 -7 -7
-3 -3 -3 -2 -2 -2 -2 -2 -2 -2 -2 -2 -2 -2 -1 -1 -1 -1 -0 -0 -0 -1 -1 -3 -1 -3 -4 -3 -2 -2 -2 -4 -2 -0 -3 -4 -2 -4 -4 -3 -5 -6 -6 -6 -6 -7 -8
Height
1589 1587 1585 1584 1581 1578 1576 1573 1570 1567 1564 1561 1558 1554 1551 1547 1543 1540 1537 1535 1533 1531 1530 1529 1527 1526 1524 1523 1521 1519 1517 1517 1516 1516 1515 1515 1516 1517 1516 1520 1522 1521 1527 1529 1530 1531 1533
1590 1588 1586 1584 1582 1580 1578 1575 1572 1569 1566 1562 1559 1555 1551 1548 1544 1541 1537 1534 1532 1530 1528 1526 1525 1524 1524 1523 1519 1517 1515 1515 1515 1515 1514 1514 1514 1516 1519 1522 1522 1526 1528 1530 1531 1531 1532
1592 1589 1587 1585 1584 1582 1579 1576 1573 1570 1566 1563 1560 1556 1552 1548 1544 1540 1536 1534 1531 1528 1527 1524 1523 1522 1522 1521 1517 1516 1515 1514 1513 1512 1512 1513 1515 1518 1519 1523 1526 1526 1527 1529 1529 1530 1531
1594 1592 1590 1587 1584 1582 1580 1578 1574 1570 1567 1563 1559 1556 1552 1547 1543 1539 1535 1531 1528 1526 1524 1522 1521 1520 1519 1518 1517 1516 1514 1512 1512 1511 1510 1511 1512 1513 1518 1524 1528 1526 1525 1515 1523 1527 1529
1592 1590 1589 1587 1585 1583 1580 1577 1574 1571 1567 1563 1559 1555 1551 1547 1542 1538 1534 1529 1525 1522 1522 1520 1519 1518 1517 1516 1516 1516 1514 1513 1511 1510 1510 1510 1511 1514 1519 1515 1515 1520 1499 1510 1516 1524 1526
1596 1593 1589 1587 1585 1581 1579 1577 1574 1571 1568 1565 1561 1556 1552 1547 1541 1537 1532 1527 1523 1521 1521 1520 1518 1519 1516 1515 1514 1513 1514 1514 1514 1513 1513 1513 1513 1511 1513 1508 1491 1500 1503 1506 1502 1519 1523
1597 1594 1592 1590 1587 1584 1581 1577 1574 1571 1568 1564 1560 1556 1552 1547 1542 1536 1532 1527 1527 1524 1521 1520 1521 1520 1518 1515 1512 1511 1511 1512 1512 1514 1510 1513 1510 1502 1498 1506 1511 1507 1504 1500 1507 1522 1520
1598 1595 1593 1590 1587 1584 1580 1577 1574 1571 1567 1564 1560 1556 1551 1546 1542 1537 1532 1530 1531 1531 1521 1520 1519 1520 1518 1516 1515 1512 1511 1513 1514 1510 1516 1514 1504 1515 1516 1517 1516 1515 1510 1504 1513 1523 1523
1598 1595 1592 1589 1585 1582 1580 1576 1573 1569 1566 1562 1559 1555 1551 1547 1541 1538 1533 1531 1530 1528 1524 1519 1519 1518 1520 1520 1519 1517 1515 1512 1511 1513 1516 1508 1517 1520 1518 1517 1515 1515 1510 1509 1512 1518 1515
1595 1593 1591 1587 1584 1580 1577 1574 1571 1568 1564 1561 1557 1553 1549 1545 1543 1538 1535 1530 1528 1526 1521 1516 1516 1515 1517 1516 1516 1514 1512 1515 1516 1511 1516 1515 1521 1521 1519 1518 1516 1506 1519 1522 1521 1515 1495
1593 1590 1588 1585 1581 1578 1574 1571 1567 1564 1561 1557 1554 1551 1548 1543 1542 1539 1537 1531 1528 1527 1521 1518 1517 1516 1512 1516 1515 1514 1512 1510 1508 1513 1515 1503 1517 1518 1518 1515 1521 1518 1525 1523 1524 1519 1525
1590 1588 1585 1582 1578 1575 1571 1567 1564 1560 1558 1554 1551 1548 1546 1543 1540 1537 1533 1531 1531 1524 1520 1511 1514 1513 1515 1513 1513 1513 1514 1513 1511 1511 1514 1513 1520 1517 1516 1521 1522 1525 1524 1525 1526 1522 1502
1588 1584 1581 1578 1576 1571 1568 1565 1561 1558 1554 1550 1547 1544 1542 1540 1539 1535 1533 1531 1526 1522 1512 1510 1512 1515 1514 1508 1509 1511 1512 1512 1507 1501 1501 1514 1513 1518 1520 1518 1522 1524 1518 1489 1482 1503 1456
1585 1582 1579 1576 1572 1569 1565 1561 1558 1554 1551 1547 1544 1541 1538 1535 1534 1533 1532 1531 1527 1508 1508 1515 1516 1515 1509 1511 1508 1508 1507 1500 1508 1509 1504 1493 1485 1515 1517 1515 1508 1516 1511 1482 1477 1453 1451
1581 1577 1575 1571 1568 1565 1562 1557 1554 1550 1546 1543 1538 1536 1533 1529 1527 1529 1531 1531 1515 1510 1514 1515 1513 1507 1503 1510 1512 1507 1504 1496 1498 1503 1495 1500 1491 1516 1517 1519 1517 1513 1511 1515 1506 1520 1496
1577 1573 1570 1566 1563 1560 1557 1553 1549 1544 1541 1538 1533 1530 1528 1524 1525 1528 1526 1518 1509 1507 1511 1515 1510 1508 1500 1502 1505 1504 1494 1495 1498 1502 1506 1500 1488 1511 1517 1518 1518 1514 1513 1507 1509 1493 1466
1570 1567 1565 1561 1557 1554 1551 1548 1545 1541 1538 1534 1530 1527 1524 1522 1522 1525 1521 1513 1510 1508 1510 1512 1512 1513 1502 1498 1499 1497 1488 1495 1500 1508 1512 1507 1502 1509 1517 1509 1495 1517 1508 1509 1504 1497 1475
1565 1563 1560 1557 1553 1550 1546 1543 1541 1537 1534 1531 1529 1524 1520 1521 1525 1522 1516 1510 1504 1504 1506 1508 1512 1509 1503 1498 1496 1496 1484 1478 1490 1494 1501 1507 1505 1498 1491 1503 1507 1506 1498 1496 1476 1482 1492
1558 1556 1555 1552 1549 1545 1543 1540 1537 1534 1531 1529 1526 1520 1517 1517 1518 1511 1509 1508 1509 1505 1501 1504 1505 1503 1502 1498 1495 1489 1490 1496 1496 1493 1493 1499 1501 1494 1478 1506 1508 1503 1496 1496 1502 1495 1479
1556 1552 1548 1545 1542 1540 1537 1536 1534 1532 1530 1529 1527 1517 1512 1512 1511 1510 1510 1507 1507 1506 1508 1507 1505 1504 1503 1499 1497 1493 1492 1500 1501 1501 1497 1496 1495 1477 1452 1449 1485 1496 1489 1490 1491 1485 1465
1550 1547 1544 1541 1538 1535 1533 1529 1527 1527 1527 1526 1522 1514 1508 1504 1505 1508 1509 1509 1506 1503 1505 1504 1503 1501 1503 1503 1501 1495 1491 1493 1496 1497 1500 1499 1490 1480 1468 1466 1474 1467 1466 1474 1476 1458 1466
1544 1541 1538 1534 1531 1530 1527 1526 1525 1522 1521 1521 1518 1514 1508 1503 1501 1502 1503 1497 1494 1493 1500 1497 1499 1490 1497 1497 1486 1479 1486 1490 1481 1491 1493 1491 1483 1485 1469 1467 1466 1459 1453 1449 1442 1441 1439
1540 1536 1532 1529 1526 1524 1522 1520 1519 1519 1517 1513 1509 1505 1505 1497 1496 1497 1494 1490 1487 1492 1487 1484 1484 1486 1488 1483 1481 1479 1478 1476 1477 1481 1483 1487 1485 1484 1455 1469 1467 1445 1426 1426 1427 1422 1425
1534 1532 1528 1525 1522 1519 1516 1514 1513 1512 1512 1509 1505 1504 1498 1486 1487 1483 1482 1483 1482 1482 1480 1481 1480 1481 1476 1474 1474 1475 1476 1477 1476 1474 1475 1478 1482 1482 1465 1466 1438 1405 1423 1424 1416 1418 1419
1524 1522 1521 1519 1516 1513 1511 1510 1508 1506 1505 1502 1502 1501 1493 1481 1481 1480 1478 1476 1473 1474 1476 1475 1473 1472 1472 1475 1475 1470 1467 1470 1465 1468 1471 1474 1476 1471 1464 1452 1414 1404 1424 1425 1422 1404 1408
1518 1515 1512 1511 1510 1506 1505 1502 1503 1501 1499 1495 1493 1494 1493 1482 1474 1474 1475 1472 1470 1465 1466 1467 1469 1469 1470 1472 1472 1457 1446 1436 1453 1468 1469 1471 1472 1471 1466 1460 1420 1418 1425 1427 1426 1409 1408
1509 1508 1505 1504 1503 1501 1499 1497 1497 1493 1493 1491 1487 1488 1486 1481 1473 1475 1471 1469 1469 1467 1464 1466 1467 1469 1470 1467 1465 1455 1444 1448 1443 1447 1464 1467 1467 1457 1456 1451 1426 1417 1424 1428 1424 1408 1413
1501 1499 1498 1497 1497 1495 1494 1491 1490 1487 1485 1484 1480 1481 1481 1473 1464 1465 1465 1465 1465 1464 1462 1464 1467 1465 1468 1464 1456 1442 1443 1440 1445 1439 1448 1449 1453 1452 1452 1453 1437 1423 1428 1426 1419 1418 1416
1495 1493 1492 1490 1490 1490 1488 1487 1484 1482 1479 1478 1474 1474 1473 1469 1458 1456 1455 1455 1455 1457 1457 1458 1451 1452 1453 1452 1448 1444 1444 1447 1437 1426 1439 1440 1428 1431 1432 1419 1418 1418 1419 1419 1421 1420 1420
Wind_Speed
16 17 18 18 19 19 19 21 22 23 22 22 22 21 19 16 13 12 12 11 8 7 8 7 8 10 8 2 3 7 6 4 4 2 1 2 2 3 2 4 2 3 5 4 5 6 7
15 16 16 17 18 18 19 21 22 24 24 24 25 24 22 20 17 15 13 12 9 9 9 9 8 8 6 4 5 6 4 3 3 1 0 3 4 5 7 4 2 4 8 8 3 5 6
15 14 15 16 17 18 18 19 21 22 23 24 25 25 24 23 21 16 12 13 13 11 9 9 7 7 6 4 3 7 5 2 2 2 3 6 9 2 6 6 9 11 5 4 6 6 4
17 16 16 15 15 15 17 18 19 20 21 23 24 24 25 25 22 17 15 15 14 13 12 9 6 4 3 3 2 6 3 0 3 4 6 8 9 9 4 12 4 3 3 4 7 8 5
16 15 15 14 14 15 16 16 18 20 21 21 23 23 24 25 23 18 20 19 16 11 10 9 5 3 3 4 3 6 2 3 4 5 7 9 7 6 8 6 4 6 6 9 4 9 5
17 17 16 15 14 13 14 16 17 19 21 24 26 27 27 26 22 22 21 20 11 7 4 6 4 2 3 3 5 3 3 2 2 4 3 2 2 3 4 7 6 7 6 6 8 7 10
15 16 17 18 18 19 19 19 20 21 22 23 24 27 29 30 27 22 22 14 7 4 8 2 5 6 4 7 3 3 4 3 3 2 4 2 6 9 9 5 2 1 5 10 3 4 5
17 18 18 18 18 19 19 20 21 22 22 24 25 26 26 28 25 26 21 10 8 8 6 6 5 6 6 7 3 4 4 0 1 3 1 2 7 4 7 3 1 2 6 9 1 3 4
21 21 21 20 20 21 22 22 22 22 22 23 24 25 27 29 23 27 19 15 10 11 5 1 2 3 4 7 4 8 7 2 3 2 1 6 2 5 1 4 4 4 7 4 5 5 10
19 20 22 25 24 22 21 20 21 21 22 22 22 22 25 25 20 26 15 17 11 12 4 3 2 1 1 3 1 3 3 2 2 1 0 2 4 3 2 3 5 5 1 1 1 5 5
17 19 21 23 25 25 24 23 23 22 22 23 23 24 25 23 25 21 20 15 10 5 5 2 1 3 2 2 1 1 2 1 4 4 4 1 6 6 5 1 4 2 2 1 1 4 6
21 22 24 24 24 24 25 25 24 23 23 25 24 24 25 25 26 21 18 14 9 3 7 3 2 1 3 1 1 3 1 1 4 3 1 1 1 2 1 4 3 9 2 1 1 2 5
23 23 24 24 25 24 23 24 25 25 25 27 27 27 25 25 25 21 14 11 3 5 3 1 0 1 2 2 1 2 1 2 3 2 4 3 4 3 3 4 4 4 2 3 4 3 5
24 25 26 26 25 26 25 24 25 25 27 28 27 26 23 23 21 16 8 3 5 1 2 0 2 2 4 1 3 2 2 4 3 2 2 4 6 8 8 3 2 8 3 4 7 7 5
26 26 27 27 27 27 27 26 26 26 26 26 26 26 25 26 19 9 1 3 5 4 0 4 2 4 3 2 4 2 5 4 3 11 8 4 4 3 2 1 2 6 8 2 2 2 5
26 26 27 27 26 27 27 26 25 25 26 25 25 26 23 14 8 7 3 7 6 5 5 3 5 2 4 1 3 2 2 3 3 3 3 2 7 3 3 2 3 5 4 3 2 4 7
27 26 26 26 26 26 26 25 24 24 23 24 23 11 12 10 5 4 6 7 4 3 4 5 2 5 9 5 6 5 4 2 3 4 2 2 3 4 3 11 8 5 5 5 1 4 4
27 27 27 27 26 26 26 25 24 24 23 22 12 4 7 8 3 2 3 5 4 6 6 2 2 6 12 5 7 6 9 8 11 16 8 4 2 7 10 3 2 3 5 11 7 7 5
32 29 26 26 26 26 26 25 24 22 22 18 10 11 15 13 5 6 5 6 5 5 6 7 5 8 3 6 6 8 5 2 10 10 8 8 5 5 5 2 0 6 11 8 2 3 16
30 30 29 28 27 22 23 24 23 21 19 16 7 4 5 8 7 4 7 4 4 4 5 2 4 4 2 3 5 5 3 2 4 3 6 10 7 12 13 9 4 6 11 16 13 8 12
30 28 27 27 25 22 21 19 18 16 15 11 6 6 4 3 5 5 4 1 3 2 6 6 4 9 7 5 3 6 7 5 6 10 7 6 8 16 23 20 14 20 20 19 22 29 14
25 26 26 25 24 21 19 19 19 14 15 15 7 6 4 5 5 4 4 7 13 10 4 4 5 8 11 8 10 12 6 7 8 12 12 7 5 3 9 16 17 21 22 23 29 29 29
28 25 27 27 25 24 21 21 18 14 14 15 15 21 19 8 5 4 6 12 14 5 11 22 9 4 9 18 22 24 15 7 5 10 16 9 5 3 8 2 8 17 24 25 18 19 24
30 26 24 26 29 28 25 24 23 18 15 21 20 21 10 13 11 10 13 16 14 20 17 16 16 10 10 10 6 5 4 9 11 14 14 8 9 3 5 5 9 2 4 2 13 17 19
27 28 27 21 24 25 23 26 22 17 19 20 22 24 12 11 14 9 16 20 21 20 17 15 17 15 10 4 1 5 3 3 8 12 14 12 8 4 4 6 16 13 4 5 7 6 19
30 29 25 24 24 25 24 21 21 21 19 26 23 19 24 14 7 18 18 12 13 14 12 6 8 8 10 3 3 5 6 7 3 3 3 13 13 7 4 5 8 4 1 2 2 6 2
28 27 27 27 27 21 20 20 19 20 22 22 25 21 20 17 25 15 8 10 11 6 3 2 4 6 9 4 4 6 8 2 5 7 8 5 7 17 13 9 10 4 8 4 2 3 7
26 25 24 23 22 18 20 20 22 23 22 21 25 21 21 16 29 26 26 22 23 13 10 3 3 4 4 5 5 5 5 5 3 3 7 11 10 6 8 7 13 11 7 5 2 2 9
22 21 21 20 20 20 20 22 22 21 20 18 24 22 19 27 22 27 29 31 28 28 17 10 9 6 15 6 6 2 4 4 5 5 9 6 7 5 10 7 2 17 1 7 2 6 8
Wind_Direction
30 27 26 25 25 28 30 31 29 27 26 23 17 11 8 5 359 357 359 356 346 347 349 333 318 324 337 312 262 331 334 332 342 337 284 204 182 147 144 106 93 89 130 80 104 111 108
29 28 28 28 29 30 31 30 29 27 25 21 17 13 7 1 355 346 341 341 328 312 314 315 310 316 311 277 299 331 336 343 336 338 268 193 178 141 106 77 12 99 111 117 139 137 147
29 31 31 32 31 31 31 30 27 25 25 21 18 15 12 5 353 344 335 331 324 310 310 315 306 311 296 241 292 340 351 333 6 98 117 135 135 130 125 116 125 140 129 161 182 177 172
28 25 25 26 31 31 25 20 19 19 17 15 14 11 6 1 355 346 337 324 313 293 285 305 295 301 244 239 255 350 316 262 101 128 124 139 141 129 103 119 105 211 220 223 158 181 169
42 40 34 30 23 19 17 15 10 7 8 10 9 7 5 0 355 353 338 328 315 294 277 280 272 249 219 238 282 327 282 216 182 146 145 151 157 113 139 175 178 201 259 226 191 200 172
32 32 33 28 24 19 12 8 7 6 5 3 3 1 359 359 358 354 348 337 331 315 306 297 252 199 226 240 277 299 308 248 224 184 130 154 93 171 178 193 240 190 221 223 236 180 215
17 15 11 12 11 9 6 5 3 1 360 0 359 359 356 355 350 356 355 347 348 310 327 252 298 290 302 306 255 325 317 214 177 175 222 46 222 223 232 239 341 257 248 248 182 146 245
0 358 357 356 355 353 352 351 351 352 353 353 354 356 358 357 354 352 358 20 7 314 306 298 304 301 301 329 318 330 353 142 267 231 307 201 241 66 96 98 218 237 263 260 170 173 246
350 350 346 345 347 344 343 343 344 345 345 347 349 350 352 353 354 349 355 3 345 341 275 296 318 332 323 339 355 339 10 41 63 194 280 259 62 130 115 153 188 229 245 256 286 306 241
330 329 330 328 333 331 331 332 333 335 335 335 338 341 343 350 352 344 340 341 333 339 282 171 172 202 265 325 227 343 7 66 86 317 312 297 133 185 195 250 208 246 119 147 309 326 279
327 325 324 322 323 324 324 321 320 320 324 324 328 332 338 345 342 336 330 329 327 331 320 95 178 270 284 242 320 238 11 111 175 167 169 172 179 188 227 269 197 1 76 56 266 261 312
320 321 322 321 321 322 322 322 323 320 318 318 320 324 330 331 334 330 325 326 319 258 246 164 184 234 279 190 216 316 299 56 123 147 176 97 103 227 75 111 97 136 147 169 175 238 246
322 322 320 320 322 321 321 323 325 327 323 317 320 319 321 323 323 322 318 319 282 237 33 59 255 340 308 277 196 25 352 236 242 256 203 171 187 139 176 147 139 192 207 270 241 205 266
320 320 320 319 320 320 321 321 319 317 315 316 317 318 321 318 311 316 310 274 254 245 288 3 269 275 269 315 205 208 209 252 205 71 328 278 260 180 169 260 242 190 245 238 256 276 311
315 314 314 314 315 315 315 318 319 321 319 321 318 319 316 315 298 281 211 251 283 278 303 323 280 259 244 224 295 300 226 248 188 190 194 216 233 130 176 187 233 155 214 13 319 176 269
312 311 308 307 309 309 309 312 312 313 315 315 318 319 310 293 278 214 188 229 228 179 147 122 264 249 282 235 266 262 261 145 171 202 307 212 281 188 136 187 209 243 138 156 205 263 255
311 309 304 303 304 303 304 306 307 310 315 321 327 312 293 282 223 193 250 245 276 226 187 166 193 247 254 258 232 219 256 166 122 137 248 200 249 131 157 207 196 177 218 217 294 228 249
311 309 307 306 303 300 299 300 302 305 307 314 316 264 271 264 196 255 215 214 199 182 186 184 231 246 253 227 232 232 234 213 160 151 166 196 279 265 246 127 340 261 252 203 226 214 245
323 320 315 310 308 306 302 301 301 306 313 323 298 270 277 231 245 219 255 287 291 207 200 168 221 232 245 232 250 217 225 66 170 174 160 161 204 283 211 191 118 224 209 227 295 3 236
313 314 317 317 317 313 306 302 299 300 307 317 298 290 237 208 236 263 289 250 241 351 6 336 255 244 248 285 271 284 272 15 210 231 133 146 211 220 255 287 132 213 209 211 211 240 245
304 307 309 310 315 318 317 309 299 291 295 308 245 242 247 254 245 218 183 219 264 273 209 216 236 241 185 231 239 235 258 199 190 206 213 215 244 236 251 264 255 250 245 220 211 228 231
306 304 304 304 304 302 305 307 311 297 277 269 259 267 281 264 251 225 245 212 262 279 212 205 241 260 202 218 227 275 229 200 217 184 193 209 252 240 271 248 252 264 254 239 234 236 240
317 304 304 308 305 305 299 294 293 296 281 269 265 256 253 245 218 224 227 263 266 245 240 255 223 214 209 235 263 272 258 240 214 181 194 177 218 200 273 68 285 275 245 231 234 234 222
300 298 302 301 301 304 303 301 301 280 279 270 269 272 266 272 237 233 249 236 250 258 260 249 253 243 272 252 251 264 250 253 230 215 198 191 185 192 278 297 256 335 174 242 239 242 227
290 291 294 298 307 307 306 301 304 284 282 281 277 276 259 264 284 277 252 259 266 254 266 264 267 254 250 158 261 269 216 248 238 223 215 208 184 226 248 233 295 293 166 195 198 253 221
289 292 293 290 289 300 309 300 293 298 286 283 290 274 279 295 261 272 267 258 264 263 260 211 241 223 174 190 227 252 265 293 229 170 263 211 227 213 175 248 264 66 159 204 232 273 172
291 290 291 295 297 292 300 309 302 296 295 291 284 284 275 273 278 278 257 278 266 263 258 174 179 169 177 187 226 235 257 164 225 212 171 191 212 225 231 246 277 276 146 153 252 6 145
287 288 292 295 296 290 294 303 307 305 292 269 284 278 273 263 270 267 262 260 275 265 276 247 155 183 172 220 225 235 240 207 240 175 182 181 181 197 206 217 262 130 118 210 344 94 141
297 289 289 295 295 291 290 299 308 308 300 281 287 286 286 261 267 271 269 269 251 265 268 223 272 217 208 212 218 228 225 188 222 254 182 221 214 190 202 214 83 189 88 211 238 164 160